Flag for USA

Past Weather in Houston Tower Site State Wildlife Area, Missouri, USA — Yesterday and Last 2 Weeks

Now
38 °F

Overcast.


Feels Like: 32 °F
Forecast: 56 / 28 °F
Wind: 8 mph from Northwest

Location: Waynesville Regional Airport

Current Time: Dec 9, 2019 at 5:50:39 pm

Latest Report: Dec 9, 2019 at 4:56 pm


Visibility: 10 mi

Pressure: 29.86 "Hg

Humidity: 82%

Dew Point: 33 °F

Location of Houston Tower Site State Wildlife AreaLocation

Past Weather in Houston Tower Site State Wildlife Area — Graph

°F

Houston Tower Site State Wildlife Area Temperature Yesterday

Maximum temperature yesterday: 54 °F (at 1:56 pm)
Minimum temperature yesterday: 33 °F (at 2:56 am)
Average temperature yesterday: 45 °F

High & Low Weather Summary for the Past Weeks

 TemperatureHumidityPressure
High70 °F (Nov 25, 12:56 pm)100% (Nov 26, 4:01 am)30.52 "Hg (Nov 26, 4:01 am)
Low23 °F (Dec 7, 5:56 am)25% (Nov 25, 12:56 pm)29.43 "Hg (Nov 26, 5:56 pm)
Average43 °F72%29.95 "Hg
* Reported Nov 24 3:56 pm — Dec 9 3:56 pm, Houston Tower Site State Wildlife Area. Weather by CustomWeather, © 2019

Note: Actual official high and low records may vary slightly from our data, if they occured in-between our weather recording intervals... More about our weather records

Houston Tower Site State Wildlife Area Weather History for the Previous 24 Hours

Scroll right to see more
 ConditionsComfort  
Time TempWeatherWind HumidityBarometerVisibility
3:56 pm
Mon, Dec 9
42 °FLow clouds.14 mph87%29.79 "Hg7 mi
3:37 pm45 °FFog.14 mph87%29.77 "Hg6 mi
3:21 pm45 °FLow clouds.15 mph87%29.75 "Hg9 mi
2:56 pm47 °FOvercast.7 mph82%29.73 "Hg10 mi
2:16 pm52 °FMostly cloudy.9 mph77%29.69 "Hg10 mi
8:56 am53 °FLow clouds.9 mph91%29.61 "Hg8 mi
8:31 am52 °FLow clouds.7 mph94%29.60 "Hg8 mi
7:56 am51 °FLow clouds.9 mph93%29.60 "Hg8 mi
6:56 am50 °FLow clouds.9 mph94%29.59 "Hg8 mi
5:56 am49 °FLow clouds.8 mph93%29.61 "Hg8 mi
4:56 am49 °FLow clouds.9 mph91%29.60 "Hg9 mi
3:56 am48 °FLow clouds.10 mph89%29.62 "Hg9 mi
2:56 am48 °FLow clouds.9 mph87%29.65 "Hg10 mi
1:56 am48 °FOvercast.12 mph86%29.65 "Hg10 mi
12:56 am48 °FOvercast.13 mph84%29.68 "Hg10 mi
11:56 pm
Sun, Dec 8
47 °FMostly cloudy.12 mph84%29.71 "Hg10 mi
11:36 pm48 °FOvercast.13 mph82%29.72 "Hg10 mi
10:56 pm47 °FOvercast.15 mph84%29.72 "Hg10 mi
9:56 pm48 °FOvercast.15 mph82%29.74 "Hg10 mi
8:56 pm48 °FOvercast.13 mph81%29.77 "Hg10 mi
8:41 pm48 °FOvercast.15 mph82%29.78 "Hg10 mi
7:56 pm48 °FOvercast.10 mph80%29.78 "Hg10 mi
6:56 pm47 °FOvercast.9 mph79%29.77 "Hg10 mi
5:56 pm47 °FOvercast.9 mph78%29.79 "Hg10 mi
5:36 pm46 °FMostly cloudy.9 mph82%29.80 "Hg10 mi
Weather by CustomWeather, © 2019

See weather overview

Advertising